Hourly Data Report for October 22, 2013

All times are specified in Local Standard Time (LST). Add 1 hour to adjust for Daylight Saving Time where and when it is observed.

CHARLOTTETOWN A
PRINCE EDWARD ISLAND

46°17'21.000" N
63°07'09.000" W
48.50 m
8300301
71706
YYG

Download Data

Hourly Data (October 2013)
Hourly Data Report for October 22, 2013
Temp Definition
°C
Dew Point Temp Definition
°C
Rel Hum Definition
%
Wind Dir Definition
10's deg

Wind Spd Definition
km/h
Visibility Definition
km
Stn Press Definition
kPa
Hmdx Definition


Wind Chill Definition


Weather Definition


TIME
00:00 Legend Double Dagger 7.6 5.8 88 24 8 24.1 101.07     LegendNANA
01:00 Legend Double Dagger 6.9 5.4 90 24 11 24.1 101.08     LegendNANA
02:00 Legend Double Dagger 5.3 4.6 95 26 5 24.1 101.10     Mainly Clear
03:00 Legend Double Dagger 4.9 3.9 93 26 6 24.1 101.08     LegendNANA
04:00 Legend Double Dagger 5.7 4.7 93 25 7 24.1 101.10     LegendNANA
05:00 Legend Double Dagger 4.6 4.5 99 25 5 24.1 101.13     Mostly Cloudy
06:00 Legend Double Dagger 3.3 3.2 99 29 4 24.1 101.13     Fog
07:00 Legend Double Dagger 4.1 4.0 99 17 5 24.1 101.12     LegendNANA
08:00 Legend Double Dagger 6.6 6.3 98 17 7 24.1 101.15     Cloudy
09:00 Legend Double Dagger 7.8 6.8 93 14 9 24.1 101.12     LegendNANA
10:00 Legend Double Dagger 10.3 6.7 78 17 15 24.1 101.05     Rain Showers
11:00 Legend Double Dagger 10.8 5.6 70 17 22 24.1 101.00     Cloudy
12:00 Legend Double Dagger 11.7 6.0 68 17 17 24.1 100.91     LegendNANA
13:00 Legend Double Dagger 12.3 5.7 64 17 21 24.1 100.85     LegendNANA
14:00 Legend Double Dagger 13.3 4.8 56 16 23 24.1 100.73     Mostly Cloudy
15:00 Legend Double Dagger 12.9 4.4 56 16 24 24.1 100.67     LegendNANA
16:00 Legend Double Dagger 12.3 4.8 60 16 18 24.1 100.59     LegendNANA
17:00 Legend Double Dagger 12.2 5.2 62 16 26 24.1 100.56     Mostly Cloudy
18:00 Legend Double Dagger 11.9 5.4 64 17 32 24.1 100.53     LegendNANA
19:00 Legend Double Dagger 11.5 6.1 69 17 24 24.1 100.50     LegendNANA
20:00 Legend Double Dagger 11.1 7.8 80 16 28 19.3 100.33     Rain Showers
21:00 Legend Double Dagger 11.2 8.1 81 16 27 24.1 100.26     Rain Showers
22:00 Legend Double Dagger 11.7 8.9 83 15 22 24.1 100.16     Rain Showers
23:00 Legend Double Dagger 10.9 10.0 94 15 18 9.7 100.08     Moderate Rain,Fog

Notes on Data Quality.

Legend

  • E = Estimated
  • M = Missing
  • NA = Not Available
  • ‡ = Partner data that is not subject to review by the National Climate Archives
Date modified: